Graham, TX

5:27 PM CDT on August 28, 2016 (GMT -0500)
Graham

Weather History for KRPH - April, 2013

Change the Weather History Date:

Wednesday, April 24, 2013

  Actual Average (KMWL) Record (KMWL)
Temperature  
Mean Temperature 48 °F -  
Max Temperature 63 °F 76 °F 91 °F (2002)
Min Temperature 32 °F 53 °F 33 °F (2013)
Degree Days  
Heating Degree Days 18    
Moisture  
Dew Point 27 °F    
Average Humidity 49    
Maximum Humidity 82    
Minimum Humidity 24    
Precipitation  
Precipitation 0.00 in - - ()
Sea Level Pressure  
Sea Level Pressure 30.27 in    
Wind  
Wind Speed 10 mph (North)    
Max Wind Speed 20 mph    
Max Gust Speed 25 mph    
Visibility 10 miles    
Events      
Averages and records for this station are not official NWS values.
T = Trace of Precipitation, MM = Missing Value Source: NWS Daily Summary

Daily Weather History Graph

Daily Weather History Graph

Search for Another Location

Airport or City:

Trip Planner

Search our weather history database for the weather conditions in past years. The results will help you decide how hot, cold, wet, or windy it might be!

Date:

Astronomy

Apr. 24, 2013 Rise Set
Actual Time 6:53 AM CDT 8:11 PM CDT
Civil Twilight 6:27 AM CDT 8:37 PM CDT
Nautical Twilight 5:56 AM CDT 9:08 PM CDT
Astronomical Twilight 5:24 AM CDT 9:40 PM CDT
Moon 7:18 PM CDT (4/24) 5:54 AM CDT (4/24)
Length of Visible Light 14h 09m
Length of Day
13h 18m
Waxing Gibbous, 98% of the Moon is Illuminated
Apr 24
Waxing Gibbous
Apr 25
Full
May 2
Last Quarter
May 9
New
May 17
First Quarter

Hourly Weather History & Observations

Time (CDT) Temp. Windchill Dew Point Humidity Pressure Visibility Wind Dir Wind Speed Gust Speed Precip Events Conditions
12:15 AM 39.2 °F 31.6 °F 31.6 °F 74% 30.25 in 10.0 mi NNW 12.7 mph - N/A   Overcast
12:35 AM 39.2 °F 31.2 °F 31.6 °F 74% 30.26 in 10.0 mi NNW 13.8 mph 20.7 mph N/A   Overcast
12:55 AM 39.2 °F 32.5 °F 31.6 °F 74% 30.25 in 10.0 mi NNW 10.4 mph - N/A   Overcast
1:15 AM 39.2 °F 30.2 °F 30.9 °F 72% 30.26 in 10.0 mi NNW 17.3 mph 20.7 mph N/A   Overcast
1:35 AM 39.2 °F 31.2 °F 30.2 °F 70% 30.28 in 10.0 mi NW 13.8 mph 19.6 mph N/A   Overcast
1:55 AM 39.2 °F 30.2 °F 30.0 °F 70% 30.28 in 10.0 mi NW 17.3 mph 25.3 mph N/A   Overcast
2:15 AM 38.5 °F 28.6 °F 28.4 °F 67% 30.28 in 10.0 mi NNW 19.6 mph 25.3 mph N/A   Overcast
2:35 AM 37.9 °F 29.2 °F 28.2 °F 68% 30.27 in 10.0 mi NNW 15.0 mph 23.0 mph N/A   Overcast
2:55 AM 36.9 °F 27.5 °F 27.3 °F 68% 30.27 in 10.0 mi NNW 16.1 mph 20.7 mph N/A   Scattered Clouds
3:15 AM 36.5 °F 27.8 °F 26.4 °F 67% 30.27 in 10.0 mi NNW 13.8 mph - N/A   Clear
3:35 AM 35.8 °F 27.3 °F 26.4 °F 69% 30.26 in 10.0 mi NNW 12.7 mph - N/A   Clear
3:55 AM 35.4 °F 29.0 °F 26.6 °F 70% 30.27 in 10.0 mi NNW 8.1 mph - N/A   Clear
4:15 AM 35.1 °F 29.3 °F 26.4 °F 71% 30.27 in 10.0 mi NNW 6.9 mph - N/A   Clear
4:35 AM 34.7 °F 28.8 °F 26.6 °F 72% 30.28 in 10.0 mi NW 6.9 mph - N/A   Clear
4:55 AM 34.2 °F 28.2 °F 26.6 °F 74% 30.29 in 10.0 mi NW 6.9 mph - N/A   Clear
5:15 AM 33.8 °F 27.7 °F 26.6 °F 75% 30.30 in 10.0 mi NNW 6.9 mph - N/A   Clear
5:55 AM 33.1 °F 28.7 °F 26.6 °F 77% 30.30 in 10.0 mi NNW 4.6 mph - N/A   Clear
6:15 AM 32.4 °F 29.1 °F 26.6 °F 79% 30.30 in 10.0 mi NNW 3.5 mph - N/A   Clear
6:35 AM 32.0 °F 27.5 °F 26.6 °F 80% 30.30 in 10.0 mi NNW 4.6 mph - N/A   Clear
6:55 AM 32.0 °F 27.5 °F 26.6 °F 80% 30.30 in 10.0 mi NNW 4.6 mph - N/A   Clear
7:15 AM 32.4 °F 27.9 °F 27.3 °F 82% 30.31 in 10.0 mi NNW 4.6 mph - N/A   Clear
7:35 AM 33.1 °F 26.9 °F 28.0 °F 82% 30.32 in 10.0 mi NNW 6.9 mph - N/A   Clear
7:55 AM 35.4 °F 29.0 °F 28.9 °F 77% 30.32 in 10.0 mi North 8.1 mph - N/A   Clear
8:15 AM 36.9 °F 30.7 °F 29.1 °F 74% 30.33 in 10.0 mi North 8.1 mph - N/A   Clear
8:35 AM 37.6 °F 30.5 °F 28.9 °F 71% 30.33 in 10.0 mi North 10.4 mph - N/A   Clear
8:55 AM 38.3 °F 31.9 °F 29.1 °F 70% 30.34 in 10.0 mi North 9.2 mph - N/A   Clear
9:15 AM 40.1 °F 33.6 °F 29.1 °F 65% 30.35 in 10.0 mi North 10.4 mph 16.1 mph N/A   Clear
9:35 AM 41.5 °F 35.9 °F 27.7 °F 58% 30.35 in 10.0 mi North 9.2 mph - N/A   Clear
9:55 AM 42.8 °F 37.5 °F 27.0 °F 54% 30.34 in 10.0 mi North 9.2 mph - N/A   Clear
10:15 AM 43.9 °F 37.9 °F 26.1 °F 50% 30.33 in 10.0 mi North 11.5 mph - N/A   Clear
10:35 AM 45.0 °F 39.3 °F 26.4 °F 48% 30.33 in 10.0 mi North 11.5 mph - N/A   Clear
10:55 AM 46.2 °F 42.2 °F 25.7 °F 45% 30.33 in 10.0 mi NNW 8.1 mph - N/A   Clear
11:15 AM 48.2 °F - 25.0 °F 40% 30.33 in 10.0 mi NNE 8.1 mph - N/A   Clear
11:35 AM 48.7 °F - 22.6 °F 36% 30.32 in 10.0 mi NNE 8.1 mph 17.3 mph N/A   Clear
11:55 AM 49.8 °F - 23.7 °F 36% 30.31 in 10.0 mi North 9.2 mph 19.6 mph N/A   Clear
12:15 PM 51.4 °F - 23.0 °F 33% 30.30 in 10.0 mi NE 6.9 mph 17.3 mph N/A   Clear
12:35 PM 52.2 °F - 23.0 °F 32% 30.29 in 10.0 mi North 9.2 mph 16.1 mph N/A   Clear
12:55 PM 53.2 °F - 23.5 °F 32% 30.28 in 10.0 mi NNE 12.7 mph - N/A   Clear
1:15 PM 54.1 °F - 24.1 °F 31% 30.28 in 10.0 mi North 8.1 mph - N/A   Clear
1:35 PM 55.4 °F - 23.9 °F 30% 30.27 in 10.0 mi NNE 8.1 mph - N/A   Clear
1:55 PM 57.0 °F - 24.8 °F 29% 30.26 in 10.0 mi NNE 9.2 mph 16.1 mph N/A   Clear
2:15 PM 58.1 °F - 24.6 °F 28% 30.26 in 10.0 mi North 10.4 mph 16.1 mph N/A   Clear
2:35 PM 59.0 °F - 24.1 °F 26% 30.25 in 10.0 mi NNE 9.2 mph 18.4 mph N/A   Clear
2:55 PM 59.2 °F - 24.3 °F 26% 30.25 in 10.0 mi North 9.2 mph - N/A   Clear
3:15 PM 60.3 °F - 24.3 °F 25% 30.25 in 10.0 mi North 8.1 mph - N/A   Clear
3:35 PM 60.4 °F - 24.8 °F 26% 30.24 in 10.0 mi NNE 5.8 mph - N/A   Clear
3:55 PM 60.8 °F - 24.4 °F 25% 30.23 in 10.0 mi North 5.8 mph - N/A   Clear
4:15 PM 61.5 °F - 25.2 °F 25% 30.22 in 10.0 mi North 6.9 mph - N/A   Clear
4:35 PM 61.9 °F - 25.3 °F 25% 30.21 in 10.0 mi East 4.6 mph - N/A   Clear
4:55 PM 62.8 °F - 25.9 °F 25% 30.20 in 10.0 mi NE 4.6 mph - N/A   Clear
5:15 PM 63.0 °F - 26.2 °F 25% 30.20 in 10.0 mi NNE 6.9 mph - N/A   Scattered Clouds
5:35 PM 63.3 °F - 25.9 °F 24% 30.20 in 10.0 mi Calm Calm - N/A   Scattered Clouds
5:55 PM 62.8 °F - 25.5 °F 24% 30.19 in 10.0 mi NE 4.6 mph - N/A   Clear
6:15 PM 62.6 °F - 25.0 °F 24% 30.20 in 10.0 mi Calm Calm - N/A   Scattered Clouds
6:35 PM 61.7 °F - 25.5 °F 25% 30.21 in 10.0 mi NE 4.6 mph - N/A   Mostly Cloudy
6:55 PM 61.0 °F - 25.2 °F 25% 30.20 in 10.0 mi ENE 5.8 mph - N/A   Scattered Clouds
7:15 PM 61.2 °F - 25.2 °F 25% 30.21 in 10.0 mi NE 5.8 mph - N/A   Scattered Clouds
7:35 PM 59.9 °F - 25.9 °F 27% 30.21 in 10.0 mi NE 6.9 mph - N/A   Scattered Clouds
7:55 PM 58.3 °F - 25.9 °F 29% 30.22 in 10.0 mi NE 4.6 mph - N/A   Scattered Clouds
8:15 PM 57.6 °F - 26.1 °F 30% 30.22 in 10.0 mi NE 3.5 mph - N/A   Mostly Cloudy
8:35 PM 57.4 °F - 26.8 °F 31% 30.23 in 10.0 mi Calm Calm - N/A   Mostly Cloudy
8:55 PM 56.7 °F - 26.6 °F 32% 30.24 in 10.0 mi Calm Calm - N/A   Overcast
10:15 PM 53.1 °F - 28.6 °F 39% 30.28 in 10.0 mi Calm Calm - N/A   Mostly Cloudy
10:35 PM 53.6 °F - 28.8 °F 39% 30.28 in 10.0 mi Calm Calm - N/A   Overcast
10:55 PM 53.8 °F - 29.8 °F 40% 30.29 in 10.0 mi Calm Calm - N/A   Overcast
11:15 PM 54.1 °F - 30.9 °F 41% 30.29 in 10.0 mi Calm Calm - N/A   Overcast
11:35 PM 54.5 °F - 32.0 °F 42% 30.29 in 10.0 mi East 5.8 mph - N/A   Mostly Cloudy
11:55 PM 52.5 °F - 32.2 °F 46% 30.29 in 10.0 mi Calm Calm - N/A   Scattered Clouds